Weather in Kozul

Russia / Altai Republic     50°58′30″N   84°41′08″E
temp.,
°C
wind,
m/s
gust,
m/s
humid.,
%
clouds,
%
prec.,
mm/h
press.,
hPa
HPBL,
m
26 february, fri
fri2601:00−24ssw5147989 0.2 10321018
04:00−25s4128295 0.1 1033613
07:00−30sw228669 0.1 103625
10:00−27ssw348148 0.0 1038236
13:00−21ssw497057 0.0 10371148
16:00−20sw386999 0.0 10371168
19:00−26s338169 0.0 103925
22:00−28ssw238292 0.0 104126
27 february, sat
sat2701:00−28s238394 0.0 104132
04:00−28s228498 0.0 104131
07:00−28sse228599 0.0 104129
10:00−25sse238498 0.0 1040148
13:00−18sse356977 0.0 1038858
16:00−16sw256379 0.0 10371303
19:00−22ssw228072 0.0 103820
22:00−25ssw22820 0.0 104122
28 february, sun
sun2801:00−27s22820 0.0 104122
04:00−27sse228419 0.0 104122
07:00−25sse238854 0.0 104124
10:00−20sse348682 0.0 1040142
13:00−14sse457386 0.0 1037711
16:00−12s4669100 0.0 10351051
19:00−16sse4582100 0.0 103478
22:00−17sse3484100 0.0 103492
1 march, mon
mon101:00−17sse4685100 0.0 1031152
04:00−16sse4687100 0.0 1029122
07:00−13sse4585100 0.0 1028148
10:00−11sse4685100 0.0 1026257
13:00−5ssw41271100 0.0 10241223
16:00−3sw4137272 0.0 10231275
19:00−8s338386 0.0 102451
22:00−11s3484100 0.0 102461
2 march, tue
tue201:00−12s338492 0.0 102446
04:00−12sse338678 0.0 102348
07:00−11s348487 0.0 102283
10:00−8s3585100 0.0 1020204
13:00−2ssw41172100 0.0 10181335
16:00−2sw41275100 0.0 10161380
19:00−7ssw2286100 0.1 101535
22:00−10sw238696 0.1 101625